Location: Chèvreville
(49.1099°N, 2.8495°E)
Time: 10:06:44
(UTC+00:00)

VELOX 1 - Pass Details

Date: 17 December 2023
Orbit: 608 x 622 km, 98.4° (Epoch: 24 February)

Event Time Altitude Azimuth Distance (km) Brightness Sun altitude
Rises 06:56:09 0° 188° (S) 2,857 ? -6.6°
Reaches altitude 10° 06:58:29 10° 198° (SSW) 1,959 ? -6.3°
Maximum altitude 07:02:20 33° 263° (W) 1,036 ? -5.7°
Drops below altitude 10° 07:06:14 10° 328° (NNW) 1,981 ? -5.1°
Sets 07:08:37 0° 338° (NNW) 2,895 ? -4.8°
